EW8805 Carrion De Calatrava ES current weather conditions

sailwx.info

Wind from 255 at 7 knots gusting 16

Air temperature 17.8° C
Dewpoint 13.5° C

Last reported at 2020-Sep-19 09:05 UTC.
Time now 2020-Sep-19 09:35 UTC

Location: N 39°01' W 003°49'.
View on Google Maps.

See reports from other nearby stations

  
Tides and Currents Weather Stations Pressure Air Temp Water Temp Dewpoint Dewpoint Depression Visibility Wind Speed Wind Dir Waves Ship Positions
date/time (UTC)wind fromknots sea level pressurealtimeterstation pressurevisibilityair tempwater tempwave heightnotes
2020-Sep-19 09:05 255 7 gusting 16 17.8
2020-Sep-19 09:00 224 9 gusting 17 17.8
2020-Sep-19 08:55 247 8 gusting 17 17.8
2020-Sep-19 08:50 235 9 gusting 15 17.8
2020-Sep-19 08:45 260 6 gusting 15 17.8
2020-Sep-19 08:40 212 6 gusting 13 17.8
2020-Sep-19 08:35 240 7 gusting 13 17.8
2020-Sep-19 08:30 218 9 gusting 13 17.8
2020-Sep-19 08:25 226 6 gusting 14 17.8
2020-Sep-19 08:20 252 6 gusting 15 18.3
2020-Sep-19 08:15 212 6 gusting 15 18.3
2020-Sep-19 08:10 207 3 gusting 13 18.3
2020-Sep-19 08:05 214 3 gusting 13 17.8
2020-Sep-19 08:01 231 5 gusting 12 17.8
2020-Sep-19 07:55 246 7 gusting 12 17.8
2020-Sep-19 07:50 172 3 gusting 9 17.8
2020-Sep-19 07:45 201 5 gusting 9 17.2
2020-Sep-19 07:40 179 3 gusting 8 17.2
2020-Sep-19 07:35 225 4 gusting 6 16.7
2020-Sep-19 07:30 214 2 gusting 8 16.7
2020-Sep-19 07:25 256 2 gusting 8 16.7
2020-Sep-19 07:20 269 4 gusting 6 16.7
2020-Sep-19 07:15 239 2 gusting 6 16.7
2020-Sep-19 07:10 218 3 gusting 6 16.7
2020-Sep-19 07:05 263 2 gusting 6 16.7
2020-Sep-19 07:00 215 1 gusting 6 16.1
2020-Sep-19 06:55 240 1 gusting 6 16.1
2020-Sep-19 06:50 229 1 gusting 7 16.1
2020-Sep-19 06:45 210 2 gusting 7 16.1
2020-Sep-19 06:40 211 1 gusting 6 16.1
2020-Sep-19 06:35 231 1 gusting 6 16.1
2020-Sep-19 06:30 216 2 gusting 8 16.1
2020-Sep-19 06:25 165 5 gusting 9 16.1
2020-Sep-19 06:20 203 2 gusting 10 15.6
2020-Sep-19 06:15 224 4 gusting 10 15.6
2020-Sep-19 06:10 226 3 gusting 8 15.6
2020-Sep-19 06:05 293 4 gusting 9 15.6
2020-Sep-19 06:00 242 4 gusting 9 15.6
2020-Sep-19 05:55 210 6 gusting 9 15.6
2020-Sep-19 05:50 229 5 gusting 9 15.6
2020-Sep-19 05:45 215 5 gusting 9 15.6
2020-Sep-19 05:35 235 4 gusting 8 15.6
2020-Sep-19 05:30 213 4 gusting 8 15.6
2020-Sep-19 05:25 225 5 gusting 8 15.6
2020-Sep-19 05:20 215 3 gusting 8 15.6
2020-Sep-19 05:15 226 2 gusting 8 15.6
2020-Sep-19 05:10 232 2 gusting 8 15.6
2020-Sep-19 05:05 255 1 gusting 6 15.0
2020-Sep-19 05:00 229 2 gusting 5 15.0
2020-Sep-19 04:55 229 1 gusting 4 15.0
2020-Sep-19 04:50 239 0 gusting 4 15.0
2020-Sep-19 04:45 198 1 gusting 5 15.0
2020-Sep-19 04:40 214 1 gusting 5 15.0
2020-Sep-19 04:35 211 0 gusting 5 15.0
2020-Sep-19 04:30 218 0 gusting 5 15.0
2020-Sep-19 04:25 214 0 gusting 3 15.0
2020-Sep-19 04:20 197 15.0
2020-Sep-19 04:15 141 0 gusting 3 15.0
2020-Sep-19 04:10 187 1 gusting 4 15.0
2020-Sep-19 04:05 183 1 gusting 4 15.0
2020-Sep-19 04:00 269 0 gusting 4 15.6
2020-Sep-19 03:55 236 1 gusting 4 15.6
2020-Sep-19 03:50 226 0 gusting 4 15.6
2020-Sep-19 03:45 211 2 gusting 4 15.6
2020-Sep-19 03:40 169 1 gusting 5 15.6
2020-Sep-19 03:35 172 1 gusting 6 15.6
2020-Sep-19 03:30 156 3 gusting 6 15.6
2020-Sep-19 03:25 183 1 gusting 6 15.6
2020-Sep-19 03:20 198 1 gusting 6 15.6
2020-Sep-19 03:15 201 2 gusting 4 15.6
2020-Sep-19 03:10 207 0 gusting 5 15.6
2020-Sep-19 03:05 216 2 gusting 5 15.6
2020-Sep-19 03:00 222 1 gusting 6 16.1
2020-Sep-19 02:55 221 3 gusting 7 16.1
2020-Sep-19 02:50 240 3 gusting 7 15.6
2020-Sep-19 02:45 204 3 gusting 7 15.6
2020-Sep-19 02:40 226 3 gusting 7 15.6
2020-Sep-19 02:35 162 2 gusting 6 15.6
2020-Sep-19 02:30 191 1 gusting 10 15.6
2020-Sep-19 02:25 239 4 gusting 10 15.6
2020-Sep-19 02:20 191 5 gusting 9 15.6
2020-Sep-19 02:15 198 5 gusting 9 15.6
2020-Sep-19 02:10 283 5 gusting 8 15.6
2020-Sep-19 02:05 195 4 gusting 8 15.6
2020-Sep-19 02:01 224 3 gusting 9 15.6
2020-Sep-19 01:55 159 6 gusting 10 15.6
2020-Sep-19 01:50 190 5 gusting 13 15.6
2020-Sep-19 01:45 195 6 gusting 13 15.6
2020-Sep-19 01:40 228 7 gusting 12 15.6
2020-Sep-19 01:35 206 6 gusting 13 15.6
2020-Sep-19 01:30 214 6 gusting 13 15.6
2020-Sep-19 01:25 222 6 gusting 11 16.1
2020-Sep-19 01:20 243 2 gusting 11 16.1
2020-Sep-19 01:15 228 9 gusting 11 16.1
2020-Sep-19 01:10 257 7 gusting 12 16.7
2020-Sep-19 01:05 274 4 gusting 12 16.7
2020-Sep-19 01:01 224 6 gusting 9 16.7
2020-Sep-19 00:55 241 4 gusting 9 17.2
2020-Sep-19 00:50 228 2 gusting 6 17.2
2020-Sep-19 00:45 232 2 gusting 6 17.2
2020-Sep-19 00:40 232 0 gusting 6 17.2
2020-Sep-19 00:35 239 1 gusting 7 17.2
2020-Sep-19 00:30 229 3 gusting 9 17.2
2020-Sep-19 00:25 243 4 gusting 11 17.2
2020-Sep-19 00:20 238 6 gusting 11 17.2
2020-Sep-19 00:15 231 1 gusting 9 17.2
2020-Sep-19 00:10 181 6 gusting 11 17.2
2020-Sep-19 00:05 233 6 gusting 11 17.2
2020-Sep-19 00:01 219 3 gusting 6 17.2
2020-Sep-18 23:55 211 3 gusting 6 17.2
2020-Sep-18 23:50 249 4 gusting 6 17.2
2020-Sep-18 23:45 214 3 gusting 6 17.2
2020-Sep-18 23:40 217 3 gusting 7 17.2
2020-Sep-18 23:35 181 4 gusting 7 17.2
2020-Sep-18 23:30 276 5 gusting 10 17.2
2020-Sep-18 23:25 226 6 gusting 10 17.2
2020-Sep-18 23:20 217 3 gusting 7 17.2
2020-Sep-18 23:15 232 4 gusting 8 17.2
2020-Sep-18 23:10 231 5 gusting 8 17.2
2020-Sep-18 23:05 240 4 gusting 8 17.2
2020-Sep-18 23:01 248 5 gusting 8 17.2
2020-Sep-18 22:55 247 6 gusting 7 17.8
2020-Sep-18 22:50 233 2 gusting 7 17.8
2020-Sep-18 22:45 220 1 gusting 9 17.8
2020-Sep-18 22:40 241 1 gusting 9 17.8
2020-Sep-18 22:35 215 4 gusting 7 17.8
2020-Sep-18 22:30 255 1 gusting 6 17.8
2020-Sep-18 22:25 225 2 gusting 6 17.2
2020-Sep-18 22:20 197 0 gusting 5 17.2
2020-Sep-18 22:15 149 0 gusting 5 17.2
2020-Sep-18 22:10 190 0 gusting 5 17.2
2020-Sep-18 22:05 152 1 gusting 5 17.2
2020-Sep-18 22:01 159 2 gusting 5 17.2
2020-Sep-18 21:55 152 1 gusting 6 17.2
2020-Sep-18 21:50 154 2 gusting 6 17.2
2020-Sep-18 21:45 209 1 gusting 6 16.7
2020-Sep-18 21:40 236 1 gusting 5 16.7
2020-Sep-18 21:35 106 2 gusting 5 16.7
2020-Sep-18 21:30 135 2 gusting 6 16.7
2020-Sep-18 21:25 133 2 gusting 6 16.7
2020-Sep-18 21:20 156 4 gusting 6 16.7
2020-Sep-18 21:15 120 3 gusting 6 17.2
2020-Sep-18 21:10 127 3 gusting 6 16.7
2020-Sep-18 21:05 150 4 gusting 6 16.7
2020-Sep-18 21:00 105 2 gusting 6 16.7
2020-Sep-18 20:55 167 1 gusting 3 16.7
2020-Sep-18 20:50 134 2 gusting 5 16.7
2020-Sep-18 20:45 193 1 gusting 4 16.7
2020-Sep-18 20:40 161 2 gusting 4 16.7
2020-Sep-18 20:35 204 1 gusting 4 16.7
2020-Sep-18 20:30 211 0 gusting 3 16.7
2020-Sep-18 20:25 167 0 gusting 3 16.7
2020-Sep-18 20:20 201 0 gusting 4 16.7
2020-Sep-18 20:15 089 0 gusting 4 16.7
2020-Sep-18 20:10 190 2 gusting 4 16.7
2020-Sep-18 20:05 226 1 gusting 5 16.7
2020-Sep-18 20:01 156 1 gusting 5 16.7
2020-Sep-18 19:55 156 1 gusting 4 16.7
2020-Sep-18 19:50 158 1 gusting 2 16.7
2020-Sep-18 19:45 165 16.7
2020-Sep-18 19:40 143 0 gusting 1 16.7
2020-Sep-18 19:35 146 16.7
2020-Sep-18 19:30 172 0 gusting 3 16.7
2020-Sep-18 19:25 151 16.7
2020-Sep-18 19:20 198 0 gusting 2 16.7
2020-Sep-18 19:15 159 16.7
2020-Sep-18 19:10 231 0 gusting 3 17.2
2020-Sep-18 19:05 193 17.2
2020-Sep-18 19:00 166 0 gusting 4 17.2
2020-Sep-18 18:55 128 17.2
2020-Sep-18 18:50 135 2 gusting 4 17.2
2020-Sep-18 18:45 111 0 gusting 6 17.2
2020-Sep-18 18:40 186 4 gusting 6 17.2
2020-Sep-18 18:35 119 3 gusting 6 17.2
2020-Sep-18 18:30 114 4 gusting 6 17.2
2020-Sep-18 18:25 085 4 gusting 6 17.2
2020-Sep-18 18:20 108 3 gusting 6 17.2
2020-Sep-18 18:15 115 4 gusting 7 17.2
2020-Sep-18 18:10 111 5 gusting 9 17.8
2020-Sep-18 18:05 103 4 gusting 11 17.8
2020-Sep-18 18:01 123 7 gusting 11 17.8
2020-Sep-18 17:55 103 4 gusting 7 18.3
2020-Sep-18 17:50 096 6 gusting 7 18.3
2020-Sep-18 17:45 103 5 gusting 6 18.3
2020-Sep-18 17:40 103 4 gusting 6 18.3
2020-Sep-18 17:35 105 3 gusting 6 18.3
2020-Sep-18 17:30 106 3 gusting 5 18.3
2020-Sep-18 17:25 091 2 gusting 4 18.9
2020-Sep-18 17:20 089 1 gusting 4 18.9
2020-Sep-18 17:15 138 18.9
2020-Sep-18 17:10 116 0 gusting 2 18.9
2020-Sep-18 17:05 100 0 gusting 2 18.9
2020-Sep-18 17:01 113 1 gusting 4 19.4
2020-Sep-18 16:55 105 2 gusting 4 19.4
2020-Sep-18 16:50 132 0 gusting 3 19.4
2020-Sep-18 16:45 108 2 gusting 3 19.4
2020-Sep-18 16:40 127 19.4
2020-Sep-18 16:35 058 19.4
2020-Sep-18 16:30 266 18.9
2020-Sep-18 16:25 346 0 gusting 0 18.9
2020-Sep-18 16:20 264 18.9
2020-Sep-18 16:15 337 18.3
2020-Sep-18 16:10 055 1 gusting 5 18.9
2020-Sep-18 16:06 016 2 gusting 5 18.9
2020-Sep-18 16:01 328 18.3
2020-Sep-18 15:55 083 18.3
2020-Sep-18 15:50 335 2 gusting 5 18.3
2020-Sep-18 15:45 276 3 gusting 5 18.3
2020-Sep-18 15:40 274 1 gusting 4 18.3
2020-Sep-18 15:35 274 18.3
2020-Sep-18 15:30 222 3 gusting 5 18.3
2020-Sep-18 15:25 250 3 gusting 5 17.8
2020-Sep-18 15:20 246 2 gusting 6 17.2
2020-Sep-18 15:15 245 6 gusting 6 16.7
2020-Sep-18 15:10 232 2 gusting 11 16.7
2020-Sep-18 15:05 235 2 gusting 14 16.7
2020-Sep-18 15:00 228 3 gusting 14 17.2
2020-Sep-18 14:55 235 10 gusting 12 17.2
2020-Sep-18 14:50 269 6 gusting 9 17.8
2020-Sep-18 14:40 128 2 gusting 6 18.3
2020-Sep-18 14:35 136 4 gusting 6 18.3
2020-Sep-18 14:30 203 2 gusting 6 18.3
2020-Sep-18 14:25 162 0 gusting 7 18.3
2020-Sep-18 14:20 252 1 gusting 7 18.9
2020-Sep-18 14:10 282 4 gusting 6 19.4
2020-Sep-18 14:05 293 4 gusting 5 19.4
2020-Sep-18 14:00 318 19.4
2020-Sep-18 13:55 071 19.4
2020-Sep-18 13:50 091 1 gusting 4 19.4
2020-Sep-18 13:45 078 1 gusting 4 19.4
2020-Sep-18 13:40 082 2 gusting 4 19.4
2020-Sep-18 13:35 065 2 gusting 4 19.4
2020-Sep-18 13:30 072 2 gusting 4 20.0
2020-Sep-18 13:25 116 0 gusting 2 20.0
2020-Sep-18 13:20 146 20.0
2020-Sep-18 13:15 146 20.0
2020-Sep-18 13:10 150 0 gusting 3 19.4
2020-Sep-18 13:05 125 0 gusting 3 19.4
2020-Sep-18 13:00 148 0 gusting 3 19.4
2020-Sep-18 12:55 179 18.9
2020-Sep-18 12:50 186 18.9
2020-Sep-18 12:45 162 0 gusting 3 18.3
2020-Sep-18 12:40 074 1 gusting 5 17.8
2020-Sep-18 12:35 041 2 gusting 4 17.8
2020-Sep-18 12:30 061 17.8
2020-Sep-18 12:25 056 0 gusting 4 17.8
2020-Sep-18 12:20 064 17.8
2020-Sep-18 12:15 350 17.8
2020-Sep-18 12:10 350 17.2
2020-Sep-18 12:05 044 17.2
2020-Sep-18 12:00 078 0 gusting 2 16.7
2020-Sep-18 11:55 125 16.7
2020-Sep-18 11:50 125 16.7
2020-Sep-18 11:45 127 16.7
2020-Sep-18 11:40 115 16.1
2020-Sep-18 11:35 135 16.1
2020-Sep-18 11:30 276 16.1
2020-Sep-18 11:25 167 15.6
2020-Sep-18 11:20 153 15.6
2020-Sep-18 11:15 115 15.6
2020-Sep-18 11:10 231 15.6
2020-Sep-18 11:05 197 0 gusting 3 15.6
2020-Sep-18 11:00 204 15.6
2020-Sep-18 10:55 249 3 gusting 5 16.1
2020-Sep-18 10:50 251 0 gusting 6 16.1
2020-Sep-18 10:45 317 4 gusting 6 15.6
2020-Sep-18 10:40 198 16.1
2020-Sep-18 10:35 261 16.1
2020-Sep-18 10:30 148 15.6
2020-Sep-18 10:25 091 5 gusting 14 15.6
2020-Sep-18 10:20 069 12 gusting 14 15.6
2020-Sep-18 10:15 092 0 gusting 1 15.6
2020-Sep-18 10:10 337 15.6
2020-Sep-18 10:05 331 15.6
2020-Sep-18 10:00 337 0 gusting 1 16.1
2020-Sep-18 09:55 100 16.1
2020-Sep-18 09:50 081 0 gusting 7 16.1
2020-Sep-18 09:45 277 17.2
2020-Sep-18 09:40 257 8 gusting 14 18.3
2020-Sep-18 09:35 277 2 gusting 5 19.4
2020-Sep-18 09:30 309 20.0
2020-Sep-18 09:25 046 20.0
2020-Sep-18 09:20 051 20.0
2020-Sep-18 09:15 073 4 gusting 7 20.0
2020-Sep-18 09:10 068 5 gusting 7 20.0
2020-Sep-18 09:05 057 1 gusting 2 20.0
2020-Sep-18 09:00 071 20.0
2020-Sep-18 08:55 071 20.0
2020-Sep-18 08:50 079 20.0
2020-Sep-18 08:45 049 20.0
2020-Sep-18 08:40 046 20.0
2020-Sep-18 08:35 084 20.0
2020-Sep-18 08:30 064 0 gusting 2 20.0
2020-Sep-18 08:25 061 1 gusting 2 20.0
2020-Sep-18 08:20 278 20.0
2020-Sep-18 08:15 277 0 gusting 1 20.0
2020-Sep-18 08:10 276 20.0
2020-Sep-18 08:05 274 20.0
2020-Sep-18 08:00 274 19.4
2020-Sep-18 07:55 274 0 gusting 1 19.4
2020-Sep-18 07:50 260 19.4
2020-Sep-18 07:45 288 19.4
2020-Sep-18 07:40 288 19.4
2020-Sep-18 07:35 288 0 gusting 1 19.4
2020-Sep-18 07:30 285 0 gusting 2 19.4
2020-Sep-18 07:25 264 1 gusting 4 19.4
2020-Sep-18 07:20 246 0 gusting 5 19.4
2020-Sep-18 07:15 314 2 gusting 5 20.0
2020-Sep-18 07:10 240 0 gusting 6 20.6
2020-Sep-18 07:05 177 2 gusting 6 20.0
2020-Sep-18 07:00 131 2 gusting 6 20.0
2020-Sep-18 06:55 176 2 gusting 6 20.0
2020-Sep-18 06:50 122 2 gusting 6 20.0
2020-Sep-18 06:45 130 4 gusting 7 19.4
2020-Sep-18 06:40 164 5 gusting 7 19.4
2020-Sep-18 06:35 232 3 gusting 6 19.4
2020-Sep-18 06:30 181 3 gusting 8 19.4
2020-Sep-18 06:25 224 2 gusting 8 20.0
2020-Sep-18 06:20 152 5 gusting 8 19.4
2020-Sep-18 06:15 170 3 gusting 8 19.4
2020-Sep-18 06:10 195 2 gusting 8 19.4
2020-Sep-18 06:05 159 3 gusting 7 19.4
2020-Sep-18 06:01 111 4 gusting 7 19.4
2020-Sep-18 05:55 119 4 gusting 8 19.4
2020-Sep-18 05:50 181 1 gusting 8 19.4
2020-Sep-18 05:45 252 1 gusting 3 18.9
2020-Sep-18 05:40 148 18.9
2020-Sep-18 05:35 130 18.9
2020-Sep-18 05:30 158 1 gusting 6 19.4
2020-Sep-18 05:25 129 3 gusting 6 19.4
2020-Sep-18 05:20 155 3 gusting 7 19.4
2020-Sep-18 05:15 173 2 gusting 7 19.4
2020-Sep-18 05:10 162 3 gusting 6 19.4
2020-Sep-18 05:05 130 0 gusting 9 19.4
2020-Sep-18 05:01 132 2 gusting 10 20.0
2020-Sep-18 04:55 135 6 gusting 10 20.0
2020-Sep-18 04:50 204 5 gusting 9 20.0
2020-Sep-18 04:45 106 2 gusting 9 20.6
2020-Sep-18 04:40 198 3 gusting 9 20.6
2020-Sep-18 04:35 174 5 gusting 10 20.6
2020-Sep-18 04:30 203 5 gusting 10 20.6
2020-Sep-18 04:25 139 1 gusting 9 20.6
2020-Sep-18 04:20 205 2 gusting 8 20.6
2020-Sep-18 04:15 220 3 gusting 7 20.6
2020-Sep-18 04:10 148 2 gusting 7 21.1
2020-Sep-18 04:05 135 3 gusting 8 21.1
2020-Sep-18 04:01 240 5 gusting 10 21.1
2020-Sep-18 03:55 130 3 gusting 10 21.1
2020-Sep-18 03:50 160 1 gusting 8 21.1
2020-Sep-18 03:45 188 3 gusting 9 21.1
2020-Sep-18 03:40 159 3 gusting 9 21.1
2020-Sep-18 03:35 229 4 gusting 8 21.1
2020-Sep-18 03:30 267 3 gusting 6 21.1
2020-Sep-18 03:25 191 0 gusting 8 21.1
2020-Sep-18 03:20 208 4 gusting 8 21.1
2020-Sep-18 03:15 192 5 gusting 9 21.1
2020-Sep-18 03:10 159 2 gusting 9 21.1
2020-Sep-18 03:05 212 1 gusting 9 21.1
2020-Sep-18 03:00 145 5 gusting 11 21.7
2020-Sep-18 02:55 162 5 gusting 12 21.7
2020-Sep-18 02:50 184 4 gusting 12 21.7
2020-Sep-18 02:45 215 4 gusting 11 21.7
2020-Sep-18 02:40 211 5 gusting 14 21.7
2020-Sep-18 02:35 187 5 gusting 14 21.7
2020-Sep-18 02:30 154 6 gusting 12 21.7
2020-Sep-18 02:25 231 5 gusting 12 21.7
2020-Sep-18 02:20 103 3 gusting 10 21.7
2020-Sep-18 02:15 187 6 gusting 10 21.1
2020-Sep-18 02:10 162 5 gusting 8 21.7
2020-Sep-18 02:05 207 4 gusting 12 21.7
2020-Sep-18 02:01 191 4 gusting 12 21.7
2020-Sep-18 01:55 190 3 gusting 12 21.7
2020-Sep-18 01:50 207 6 gusting 12 21.7
2020-Sep-18 01:45 169 6 gusting 14 21.7
2020-Sep-18 01:40 162 6 gusting 14 21.7
2020-Sep-18 01:35 169 6 gusting 9 21.7
2020-Sep-18 01:30 128 4 gusting 10 21.7
2020-Sep-18 01:25 153 6 gusting 13 21.7
2020-Sep-18 01:20 215 6 gusting 13 21.7
2020-Sep-18 01:15 203 5 gusting 11 21.7
2020-Sep-18 01:10 211 3 gusting 11 21.7
2020-Sep-18 01:05 155 2 gusting 11 21.7
2020-Sep-18 01:01 200 7 gusting 11 21.7
2020-Sep-18 00:55 166 6 gusting 10 21.7
2020-Sep-18 00:50 009 6 gusting 10 21.7
2020-Sep-18 00:45 255 4 gusting 11 21.7
2020-Sep-18 00:40 292 4 gusting 12 21.7
2020-Sep-18 00:35 181 6 gusting 12 21.7
2020-Sep-18 00:30 195 5 gusting 13 21.7
2020-Sep-18 00:25 243 4 gusting 13 21.7
2020-Sep-18 00:20 241 6 gusting 10 21.7
2020-Sep-18 00:15 170 3 gusting 10 21.7
2020-Sep-18 00:10 167 5 gusting 11 21.7
2020-Sep-18 00:05 134 3 gusting 11 21.7
2020-Sep-18 00:00 218 2 gusting 5 21.7
2020-Sep-17 23:55 162 1 gusting 5 21.7
2020-Sep-17 23:50 058 0 gusting 5 21.7
2020-Sep-17 23:45 191 0 gusting 6 21.7
2020-Sep-17 23:40 129 3 gusting 7 21.7
2020-Sep-17 23:35 124 2 gusting 7 21.7
2020-Sep-17 23:30 129 3 gusting 8 21.7
2020-Sep-17 23:25 141 4 gusting 9 21.7
2020-Sep-17 23:20 195 4 gusting 9 21.7
2020-Sep-17 23:15 129 3 gusting 7 21.1
2020-Sep-17 23:10 138 3 gusting 6 21.1
2020-Sep-17 23:05 155 1 gusting 5 21.1
2020-Sep-17 23:01 122 3 gusting 4 20.6
2020-Sep-17 22:55 072 20.6
2020-Sep-17 22:50 072 20.6
2020-Sep-17 22:45 072 20.0
2020-Sep-17 22:40 075 0 gusting 3 20.0
2020-Sep-17 22:35 075 0 gusting 4 20.0
2020-Sep-17 22:30 070 1 gusting 4 20.0
2020-Sep-17 22:25 075 2 gusting 3 20.0
2020-Sep-17 22:20 070 1 gusting 2 20.6
2020-Sep-17 22:15 257 0 gusting 0 20.6
2020-Sep-17 22:10 257 20.6
2020-Sep-17 22:05 257 20.6
2020-Sep-17 22:01 257 20.6
2020-Sep-17 21:55 257 20.6
2020-Sep-17 21:50 257 20.6
2020-Sep-17 21:45 257 20.6
2020-Sep-17 21:40 257 20.6
2020-Sep-17 21:35 257 20.6
2020-Sep-17 21:30 257 20.6
2020-Sep-17 21:25 257 20.6
2020-Sep-17 21:20 257 20.6
2020-Sep-17 21:15 269 20.6
2020-Sep-17 21:10 269 20.6
2020-Sep-17 21:05 281 20.6
2020-Sep-17 21:00 281 0 gusting 3 20.6
2020-Sep-17 20:55 291 1 gusting 3 20.6
2020-Sep-17 20:50 287 2 gusting 3 20.6
2020-Sep-17 20:45 276 0 gusting 2 20.6
2020-Sep-17 20:40 300 0 gusting 2 21.1
2020-Sep-17 20:35 315 21.1
2020-Sep-17 20:30 315 21.1
2020-Sep-17 20:25 305 1 gusting 4 21.1
2020-Sep-17 20:20 294 2 gusting 4 21.7
2020-Sep-17 20:15 293 2 gusting 4 22.2
2020-Sep-17 20:10 288 1 gusting 2 22.2
2020-Sep-17 20:05 190 0 gusting 2 22.2
2020-Sep-17 20:00 222 22.2
2020-Sep-17 19:55 245 22.2
2020-Sep-17 19:50 150 22.2
2020-Sep-17 19:45 193 0 gusting 6 22.8
2020-Sep-17 19:40 262 0 gusting 6 22.8
2020-Sep-17 19:35 211 22.8
2020-Sep-17 19:30 226 2 gusting 6 22.8
2020-Sep-17 19:25 243 2 gusting 6 22.8
2020-Sep-17 19:20 246 1 gusting 6 22.8
2020-Sep-17 19:15 229 1 gusting 6 22.8
2020-Sep-17 19:10 165 3 gusting 11 22.8
2020-Sep-17 19:05 120 4 gusting 11 22.8
2020-Sep-17 19:01 109 4 gusting 11 22.8
2020-Sep-17 18:55 165 2 gusting 11 23.3
2020-Sep-17 18:50 210 6 gusting 15 23.3
2020-Sep-17 18:45 136 8 gusting 15 23.9
2020-Sep-17 18:40 148 6 gusting 16 24.4
2020-Sep-17 18:35 241 6 gusting 17 25.0
2020-Sep-17 18:30 108 7 gusting 17 25.6
2020-Sep-17 18:25 124 7 gusting 17 26.1
2020-Sep-17 18:20 095 6 gusting 17 26.7
2020-Sep-17 18:15 187 3 gusting 6 26.7
2020-Sep-17 18:10 162 3 gusting 6 26.7
2020-Sep-17 18:05 195 3 gusting 6 26.7
2020-Sep-17 18:00 222 2 gusting 8 26.7
2020-Sep-17 17:55 219 3 gusting 8 27.2
2020-Sep-17 17:50 208 1 gusting 7 27.2
2020-Sep-17 17:45 161 0 gusting 5 27.2
2020-Sep-17 17:40 166 0 gusting 9 27.2
2020-Sep-17 17:35 250 5 gusting 9 27.2
2020-Sep-17 17:30 207 4 gusting 7 27.2
2020-Sep-17 17:25 171 1 gusting 8 27.2
2020-Sep-17 17:20 205 4 gusting 8 27.2
2020-Sep-17 17:15 203 5 gusting 8 27.2
2020-Sep-17 17:10 145 3 gusting 8 27.2
2020-Sep-17 17:05 203 2 gusting 5 27.2
2020-Sep-17 17:01 200 2 gusting 5 27.8
2020-Sep-17 16:55 217 3 gusting 5 27.8
2020-Sep-17 16:50 148 0 gusting 5 27.8
2020-Sep-17 16:45 218 0 gusting 5 27.8
2020-Sep-17 16:40 197 2 gusting 6 27.8
2020-Sep-17 16:35 194 3 gusting 9 27.8
2020-Sep-17 16:30 217 6 gusting 9 27.8
2020-Sep-17 16:25 186 6 gusting 11 27.8
2020-Sep-17 16:20 213 4 gusting 14 27.8
2020-Sep-17 16:15 246 8 gusting 14 27.8
2020-Sep-17 16:10 210 6 gusting 10 27.8
2020-Sep-17 16:05 143 2 gusting 11 27.8
2020-Sep-17 16:00 184 7 gusting 11 27.8
2020-Sep-17 15:55 177 3 gusting 8 28.3
2020-Sep-17 15:50 225 4 gusting 11 28.3
2020-Sep-17 15:45 198 1 gusting 11 28.3
2020-Sep-17 15:40 242 6 gusting 10 28.3
2020-Sep-17 15:35 139 4 gusting 10 28.3
2020-Sep-17 15:30 246 0 gusting 7 28.3
2020-Sep-17 15:25 142 2 gusting 10 28.3
2020-Sep-17 15:20 235 6 gusting 10 28.9
2020-Sep-17 15:15 210 3 gusting 13 28.3
2020-Sep-17 15:10 266 4 gusting 13 28.3
2020-Sep-17 15:05 229 6 gusting 12 28.3
2020-Sep-17 15:00 210 6 gusting 12 28.3
2020-Sep-17 14:55 248 7 gusting 13 28.3
2020-Sep-17 14:50 169 7 gusting 13 27.8
2020-Sep-17 14:45 208 8 gusting 13 27.8
2020-Sep-17 14:40 095 7 gusting 13 27.8
2020-Sep-17 14:35 263 2 gusting 12 27.8
2020-Sep-17 14:30 181 2 gusting 11 27.8
2020-Sep-17 14:25 207 4 gusting 11 27.8
2020-Sep-17 14:20 168 5 gusting 14 27.8
2020-Sep-17 14:15 232 5 gusting 14 27.8
2020-Sep-17 14:10 176 8 gusting 14 27.8
2020-Sep-17 14:05 272 8 gusting 13 27.2
2020-Sep-17 14:01 260 4 gusting 13 27.2
2020-Sep-17 13:55 146 4 gusting 10 27.2
2020-Sep-17 13:50 205 3 gusting 10 26.7
2020-Sep-17 13:45 171 3 gusting 9 26.7
2020-Sep-17 13:40 233 2 gusting 10 26.7
2020-Sep-17 13:35 183 5 gusting 10 27.2
2020-Sep-17 13:30 235 6 gusting 13 27.2
2020-Sep-17 13:25 179 8 gusting 13 27.2
2020-Sep-17 13:20 207 6 gusting 13 27.2
2020-Sep-17 13:15 155 3 gusting 13 27.2
2020-Sep-17 13:10 160 6 gusting 13 26.7
2020-Sep-17 13:05 224 1 gusting 10 26.7
2020-Sep-17 12:55 235 6 gusting 12 26.7
2020-Sep-17 12:50 188 4 gusting 12 26.7
2020-Sep-17 12:45 174 3 gusting 11 26.7
2020-Sep-17 12:40 131 6 gusting 10 26.7
2020-Sep-17 12:36 172 4 gusting 11 26.7
2020-Sep-17 12:30 136 4 gusting 11 26.7
2020-Sep-17 12:25 150 3 gusting 10 26.7
2020-Sep-17 12:20 224 0 gusting 10 26.1
2020-Sep-17 12:15 129 4 gusting 12 26.1
2020-Sep-17 12:10 058 1 gusting 12 26.1
2020-Sep-17 12:05 245 1 gusting 9 25.6
2020-Sep-17 12:01 213 4 gusting 9 25.6
2020-Sep-17 11:55 186 4 gusting 9 25.6
2020-Sep-17 11:50 177 4 gusting 8 25.6
2020-Sep-17 11:45 207 5 gusting 10 25.6
2020-Sep-17 11:40 225 5 gusting 11 25.0
2020-Sep-17 11:35 208 6 gusting 11 25.0
2020-Sep-17 11:30 219 6 gusting 10 25.6
2020-Sep-17 11:25 262 4 gusting 7 25.6
2020-Sep-17 11:20 145 4 gusting 7 25.6
2020-Sep-17 11:15 219 5 gusting 7 25.6
2020-Sep-17 11:10 097 3 gusting 6 25.6
2020-Sep-17 11:05 165 2 gusting 6 25.0
2020-Sep-17 11:01 198 3 gusting 6 25.0
2020-Sep-17 10:55 191 1 gusting 8 24.4
2020-Sep-17 10:50 158 4 gusting 8 24.4
2020-Sep-17 10:45 136 2 gusting 6 24.4
2020-Sep-17 10:40 155 2 gusting 6 23.9
2020-Sep-17 10:35 200 1 gusting 5 23.9
2020-Sep-17 10:30 139 2 gusting 4 23.3
2020-Sep-17 10:25 166 22.8
2020-Sep-17 10:20 093 1 gusting 3 22.8
2020-Sep-17 10:15 116 1 gusting 3 22.8
2020-Sep-17 10:10 063 3 gusting 4 22.2
2020-Sep-17 10:05 082 3 gusting 4 22.2
2020-Sep-17 10:00 044 1 gusting 3 22.2
2020-Sep-17 09:55 050 0 gusting 3 22.2
2020-Sep-17 09:50 060 1 gusting 3 22.2
2020-Sep-17 09:45 077 2 gusting 3 21.7
2020-Sep-17 09:40 056 1 gusting 3 22.2
2020-Sep-17 09:35 085 22.2
2020-Sep-17 09:30 126 0 gusting 3 22.2
2020-Sep-17 09:25 073 0 gusting 4 22.2
2020-Sep-17 09:20 086 0 gusting 4 22.2
2020-Sep-17 09:15 104 2 gusting 4 21.7
2020-Sep-17 09:10 122 0 gusting 4 21.7
2020-Sep-17 09:05 085 2 gusting 4 21.1
2020-Sep-17 09:01 081 1 gusting 3 21.1